H1 CPF 2 NER 2023 10 20 9 293 01 glonass143 H2 2007501 9143 46805 2023 10 20 0 0 0 2023 10 23 23 45 0 900 1 1 0 0 0 1 H9 10 0 60237 0.00000 0 -21906744.630 -125496.405 -13069364.276 10 0 60237 900.00000 0 -23334773.390 -372730.456 -10304129.801 10 0 60237 1800.00000 0 -24430701.642 -448440.354 -7338802.200 10 0 60237 2700.00000 0 -25158420.335 -397507.670 -4230988.975 10 0 60237 3600.00000 0 -25493686.754 -270697.702 -1041043.744 10 0 60237 4500.00000 0 -25425102.726 -122265.975 2169106.606 10 0 60237 5400.00000 0 -24954573.608 -7418.161 5337163.934 10 0 60237 6300.00000 0 -24097229.361 20268.602 8401666.533 10 0 60237 7200.00000 0 -22880811.544 -88646.405 11303178.893 10 0 60237 8100.00000 0 -21344552.335 -377136.605 13985440.533 10 0 60237 9000.00000 0 -19537592.838 -879652.882 16396451.896 10 0 60237 9900.00000 0 -17517006.922 -1620430.875 18489476.627 10 0 60237 10800.00000 0 -15345513.083 -2612232.386 20223941.453 10 0 60237 11700.00000 0 -13088969.424 -3855574.359 21566216.961 10 0 60237 12600.00000 0 -10813755.631 -5338478.499 22490264.829 10 0 60237 13500.00000 0 -8584150.198 -7036753.026 22978139.720 10 0 60237 14400.00000 0 -6459811.079 -8914796.019 23020336.582 10 0 60237 15300.00000 0 -4493463.633 -10926888.228 22615976.930 10 0 60237 16200.00000 0 -2728891.016 -13018922.936 21772830.440 10 0 60237 17100.00000 0 -1199309.707 -15130502.328 20507171.118 10 0 60237 18000.00000 0 73802.958 -17197314.377 18843470.159 10 0 60237 18900.00000 0 1081381.031 -19153692.393 16813930.622 10 0 60237 19800.00000 0 1826914.450 -20935251.363 14457871.902 10 0 60237 20700.00000 0 2326060.142 -22481491.540 11820974.980 10 0 60237 21600.00000 0 2605736.418 -23738260.621 8954402.154 10 0 60237 22500.00000 0 2702739.058 -24659971.207 5913807.669 10 0 60237 23400.00000 0 2661937.762 -25211480.198 2758258.069 10 0 60237 24300.00000 0 2534129.572 -25369550.424 -450916.799 10 0 60237 25200.00000 0 2373640.621 -25123832.224 -3651319.597 10 0 60237 26100.00000 0 2235778.519 -24477322.952 -6780704.245 10 0 60237 27000.00000 0 2174244.174 -23446284.338 -9778193.154 10 0 60237 27900.00000 0 2238613.774 -22059620.569 -12585468.455 10 0 60237 28800.00000 0 2471998.757 -20357742.848 -15147913.131 10 0 60237 29700.00000 0 2908984.026 -18390968.027 -17415679.158 10 0 60237 30600.00000 0 3573932.780 -16217518.556 -19344661.338 10 0 60237 31500.00000 0 4479730.688 -13901207.759 -20897357.514 10 0 60237 32400.00000 0 5627023.397 -11508907.614 -22043598.444 10 0 60237 33300.00000 0 7003980.422 -9107905.023 -22761133.229 10 0 60237 34200.00000 0 8586596.115 -6763257.105 -23036059.276 10 0 60237 35100.00000 0 10339515.773 -4535255.666 -22863088.816 10 0 60237 36000.00000 0 12217352.818 -2477106.171 -22245647.246 10 0 60237 36900.00000 0 14166442.334 -632917.264 -21195801.791 10 0 60237 37800.00000 0 16126957.917 963916.286 -19734022.165 10 0 60237 38700.00000 0 18035303.616 2291871.062 -17888778.139 10 0 60237 39600.00000 0 19826681.072 3341945.986 -15695981.979 10 0 60237 40500.00000 0 21437724.656 4117781.251 -13198286.671 10 0 60237 41400.00000 0 22809094.443 4635241.945 -10444253.647 10 0 60237 42300.00000 0 23887918.586 4921485.524 -7487406.299 10 0 60237 43200.00000 0 24629982.894 5013554.007 -4385187.799 10 0 60237 44100.00000 0 25001576.029 4956551.640 -1197843.651 10 0 60237 45000.00000 0 24980913.151 4801486.124 2012749.047 10 0 60237 45900.00000 0 24559078.566 4602865.599 5184282.676 10 0 60237 46800.00000 0 23740448.111 4416153.620 8255227.012 10 0 60237 47700.00000 0 22542573.847 4295190.219 11166020.388 10 0 60237 48600.00000 0 20995536.087 4289688.317 13860221.083 10 0 60237 49500.00000 0 19140790.008 4442911.383 16285596.839 10 0 60237 50400.00000 0 17029555.015 4789630.429 18395131.782 10 0 60237 51300.00000 0 14720813.914 5354446.568 20147931.800 10 0 60237 52200.00000 0 12279004.876 6150549.958 21510011.604 10 0 60237 53100.00000 0 9771501.684 7178967.723 22454948.875 10 0 60237 54000.00000 0 7265986.294 8428333.044 22964393.542 10 0 60237 54900.00000 0 4827821.892 9875186.058 23028422.861 10 0 60237 55800.00000 0 2517534.572 11484795.082 22645735.649 10 0 60237 56700.00000 0 388507.163 13212465.202 21823681.960 10 0 60237 57600.00000 0 -1515020.044 15005280.968 20578127.245 10 0 60237 58500.00000 0 -3159559.388 16804211.809 18933153.041 10 0 60237 59400.00000 0 -4523530.572 18546493.448 16920599.137 10 0 60237 60300.00000 0 -5597912.508 20168186.846 14579455.084 10 0 60237 61200.00000 0 -6386365.582 21606808.251 11955111.871 10 0 60237 62100.00000 0 -6904819.649 22803920.520 9098487.354 10 0 60237 63000.00000 0 -7180545.502 23707577.049 6065041.731 10 0 60237 63900.00000 0 -7250749.236 24274515.198 2913701.780 10 0 60237 64800.00000 0 -7160749.285 24472006.257 -294285.342 10 0 60237 65700.00000 0 -6961813.713 24279283.289 -3496546.173 10 0 60237 66600.00000 0 -6708749.930 23688485.658 -6630799.159 10 0 60237 67500.00000 0 -6457349.735 22705079.532 -9636072.510 10 0 60237 68400.00000 0 -6261798.847 21347735.723 -12453897.236 10 0 60237 69300.00000 0 -6172161.684 19647669.291 -15029451.222 10 0 60237 70200.00000 0 -6232048.962 17647468.146 -17312631.385 10 0 60237 71100.00000 0 -6476567.810 15399459.512 -19259032.529 10 0 60237 72000.00000 0 -6930642.035 12963682.590 -20830813.468 10 0 60237 72900.00000 0 -7607774.301 10405552.277 -21997433.549 10 0 60237 73800.00000 0 -8509303.144 7793311.559 -22736245.376 10 0 60237 74700.00000 0 -9624186.756 5195378.927 -23032932.503 10 0 60237 75600.00000 0 -10929323.089 2677701.214 -22881784.011 10 0 60237 76500.00000 0 -12390393.278 301221.778 -22285801.068 10 0 60237 77400.00000 0 -13963193.259 -1880431.126 -21256633.807 10 0 60237 78300.00000 0 -15595398.007 -3822940.378 -19814350.085 10 0 60237 79200.00000 0 -17228684.591 -5492898.419 -17987040.842 10 0 60237 80100.00000 0 -18801125.179 -6868942.756 -15810269.908 10 0 60237 81000.00000 0 -20249749.744 -7942382.692 -13326379.025 10 0 60237 81900.00000 0 -21513171.074 -8717292.784 -10583661.652 10 0 60237 82800.00000 0 -22534161.951 -9210070.836 -7635421.720 10 0 60237 83700.00000 0 -23262076.362 -9448480.727 -4538935.736 10 0 60237 84600.00000 0 -23655013.120 -9470221.924 -1354338.583 10 0 60237 85500.00000 0 -23681631.037 -9321087.375 1856545.097 10 0 60238 0.00000 0 -23322539.546 -9052788.705 5031400.726 10 0 60238 900.00000 0 -22571206.159 -8720541.276 8108633.031 10 0 60238 1800.00000 0 -21434343.298 -8380512.147 11028556.872 10 0 60238 2700.00000 0 -19931757.631 -8087238.628 13734552.255 10 0 60238 3600.00000 0 -18095668.519 -7891126.929 16174157.113 10 0 60238 4500.00000 0 -15969523.734 -7836136.353 18300078.758 10 0 60238 5400.00000 0 -13606361.548 -7957746.620 20071104.697 10 0 60238 6300.00000 0 -11066786.887 -8281293.882 21452895.880 10 0 60238 7200.00000 0 -8416645.109 -8820745.508 22418647.703 10 0 60238 8100.00000 0 -5724489.183 -9577965.365 22949606.667 10 0 60238 9000.00000 0 -3058944.404 -10542500.960 23035433.201 10 0 60238 9900.00000 0 -486078.945 -11691902.127 22674403.899 10 0 60238 10800.00000 0 1933111.829 -12992558.924 21873449.276 10 0 60238 11700.00000 0 4145003.955 -14401024.859 20648025.966 10 0 60238 12600.00000 0 6105331.903 -15865771.291 19021825.253 10 0 60238 13500.00000 0 7780782.275 -17329300.770 17026322.740 10 0 60238 14400.00000 0 9150128.533 -18730531.865 14700176.888 10 0 60238 15300.00000 0 10204859.962 -20007356.262 12088487.113 10 0 60238 16200.00000 0 10949279.025 -21099261.288 9241924.927 10 0 60238 17100.00000 0 11400063.479 -21949907.794 6215754.264 10 0 60238 18000.00000 0 11585312.010 -22509554.631 3068759.631 10 0 60238 18900.00000 0 11543114.035 -22737227.048 -137897.190 10 0 60238 19800.00000 0 11319704.502 -22602536.648 -3341869.461 10 0 60238 20700.00000 0 10967282.343 -22087075.109 -6480843.086 10 0 60238 21600.00000 0 10541585.577 -21185321.878 -9493755.043 10 0 60238 22500.00000 0 10099326.580 -19905026.283 -12321988.165 10 0 60238 23400.00000 0 9695597.009 -18267047.020 -14910518.106 10 0 60238 24300.00000 0 9381353.187 -16304654.886 -17208989.470 10 0 60238 25200.00000 0 9201089.235 -14062327.361 -19172699.608 10 0 60238 26100.00000 0 9190797.128 -11594085.181 -20763470.583 10 0 60238 27000.00000 0 9376300.512 -8961440.191 -21950392.281 10 0 60238 27900.00000 0 9772033.127 -6231040.073 -22710422.360 10 0 60238 28800.00000 0 10380313.688 -3472108.041 -23028831.652 10 0 60238 29700.00000 0 11191148.024 -753784.027 -22899486.784 10 0 60238 30600.00000 0 12182566.956 1857522.336 -22324964.968 10 0 60238 31500.00000 0 13321485.763 4300657.231 -21316499.116 10 0 60238 32400.00000 0 14565049.179 6522022.349 -19893754.717 10 0 60238 33300.00000 0 15862405.363 8477553.995 -18084443.008 10 0 60238 34200.00000 0 17156834.351 10134300.319 -15923778.147 10 0 60238 35100.00000 0 18388141.451 11471532.311 -13453789.037 10 0 60238 36000.00000 0 19495215.001 12481343.710 -10722499.202 10 0 60238 36900.00000 0 20418640.847 13168716.367 -7782990.800 10 0 60238 37800.00000 0 21103263.536 13551050.063 -4692371.048 10 0 60238 38700.00000 0 21500586.415 13657178.146 -1510661.317 10 0 60238 39600.00000 0 21570909.561 13525911.931 1700369.262 10 0 60238 40500.00000 0 21285115.560 13204176.522 4878402.844 10 0 60238 41400.00000 0 20626027.918 12744817.704 7961781.077 10 0 60238 42300.00000 0 19589284.923 12204173.253 10890698.911 10 0 60238 43200.00000 0 18183692.070 11639511.635 13608360.891 10 0 60238 44100.00000 0 16431037.987 11106446.410 16062077.719 10 0 60238 45000.00000 0 14365381.178 10656435.363 18204282.219 10 0 60238 45900.00000 0 12031836.831 10334469.623 19993445.554 10 0 60238 46800.00000 0 9484913.568 10177049.801 21394876.658 10 0 60238 47700.00000 0 6786468.529 10210534.098 22381390.072 10 0 60238 48600.00000 0 4003364.795 10449927.659 22933829.952 10 0 60238 49500.00000 0 1204927.235 10898164.124 23041440.601 10 0 60238 50400.00000 0 -1539698.810 11545909.809 22702076.682 10 0 60238 51300.00000 0 -4164177.722 12371899.322 21922249.016 10 0 60238 52200.00000 0 -6607494.769 13343789.348 20717004.808 10 0 60238 53100.00000 0 -8816245.041 14419495.762 19109644.031 10 0 60238 54000.00000 0 -10746605.990 15548959.014 17131276.626 10 0 60238 54900.00000 0 -12365912.264 16676264.704 14820228.139 10 0 60238 55800.00000 0 -13653767.709 17742031.044 12221304.318 10 0 60238 56700.00000 0 -14602648.575 18685963.422 9384928.037 10 0 60238 57600.00000 0 -15217973.029 19449468.783 6366164.554 10 0 60238 58500.00000 0 -15517634.328 19978219.473 3223653.640 10 0 60238 59400.00000 0 -15531017.630 20224557.944 18469.191 10 0 60238 60300.00000 0 -15297542.308 20149639.923 -3187071.300 10 0 60238 61200.00000 0 -14864791.798 19725224.575 -6330623.694 10 0 60238 62100.00000 0 -14286310.672 18935034.810 -9351036.197 10 0 60238 63000.00000 0 -13619162.822 17775629.070 -12189545.856 10 0 60238 63900.00000 0 -12921354.882 16256746.575 -14790928.375 10 0 60238 64800.00000 0 -12249234.706 14401110.360 -17104578.164 10 0 60238 65700.00000 0 -11654975.699 12243695.402 -19085497.061 10 0 60238 66600.00000 0 -11184254.010 9830491.788 -20695172.106 10 0 60238 67500.00000 0 -10874217.183 7216814.148 -21902325.240 10 0 60238 68400.00000 0 -10751830.319 4465227.570 -22683520.454 10 0 60238 69300.00000 0 -10832669.642 1643176.222 -23023616.889 10 0 60238 70200.00000 0 -11120214.267 -1179586.766 -22916059.475 10 0 60238 71100.00000 0 -11605665.862 -3933661.586 -22363001.913 10 0 60238 72000.00000 0 -12268303.535 -6552645.809 -21375260.006 10 0 60238 72900.00000 0 -13076358.761 -8975650.911 -19972096.615 10 0 60238 73800.00000 0 -13988373.233 -11149587.338 -18180842.643 10 0 60238 74700.00000 0 -14954982.223 -13031123.954 -16036361.592 10 0 60238 75600.00000 0 -15921048.146 -14588241.412 -13580368.205 10 0 60238 76500.00000 0 -16828054.273 -15801315.975 -10860614.477 10 0 60238 77400.00000 0 -17616657.574 -16663689.961 -7929958.944 10 0 60238 78300.00000 0 -18229292.938 -17181706.498 -4845337.481 10 0 60238 79200.00000 0 -18612718.877 -17374208.700 -1666655.716 10 0 60238 80100.00000 0 -18720397.224 -17271525.826 1544375.151 10 0 60238 81000.00000 0 -18514606.415 -16913990.421 4725436.308 10 0 60238 81900.00000 0 -17968199.135 -16350050.068 7814809.636 10 0 60238 82800.00000 0 -17065930.138 -15634054.220 10752572.752 10 0 60238 83700.00000 0 -15805298.118 -14823809.995 13481757.657 10 0 60238 84600.00000 0 -14196865.889 -13978010.301 15949450.735 10 0 60238 85500.00000 0 -12264044.934 -13153642.658 18107813.114 10 0 60239 0.00000 0 -10042352.868 -12403487.716 19915002.055 10 0 60239 900.00000 0 -7578172.706 -11773811.925 21335977.086 10 0 60239 1800.00000 0 -4927067.677 -11302351.962 22343173.638 10 0 60239 2700.00000 0 -2151716.577 -11016673.756 22917035.030 10 0 60239 3600.00000 0 680442.959 -10932975.754 23046390.533 10 0 60239 4500.00000 0 3499767.900 -11055386.059 22728673.535 10 0 60239 5400.00000 0 6237055.216 -11375783.124 21969975.426 10 0 60239 6300.00000 0 8826170.808 -11874147.846 20784933.861 10 0 60239 7200.00000 0 11206553.971 -12519432.871 19196457.015 10 0 60239 8100.00000 0 13325494.376 -13270913.291 17235288.333 10 0 60239 9000.00000 0 15140087.612 -14079962.782 14939419.243 10 0 60239 9900.00000 0 16618788.375 -14892181.153 12353360.257 10 0 60239 10800.00000 0 17742496.869 -15649784.306 9527283.670 10 0 60239 11700.00000 0 18505133.182 -16294156.103 6516053.751 10 0 60239 12600.00000 0 18913675.828 -16768454.531 3378162.887 10 0 60239 13500.00000 0 18987662.942 -17020161.631 174594.180 10 0 60239 14400.00000 0 18758177.366 -17003468.685 -3032367.196 10 0 60239 15300.00000 0 18266358.838 -16681394.881 -6180350.227 10 0 60239 16200.00000 0 17561506.538 -16027548.697 -9208117.497 10 0 60239 17100.00000 0 16698852.758 -15027456.232 -12056763.317 10 0 60239 18000.00000 0 15737102.421 -13679398.990 -14670866.328 10 0 60239 18900.00000 0 14735843.200 -11994724.505 -16999573.433 10 0 60239 19800.00000 0 13752936.322 -9997615.500 -18997593.390 10 0 60239 20700.00000 0 12841998.831 -7724326.271 -20626080.360 10 0 60239 21600.00000 0 12050083.966 -5221917.426 -21853390.144 10 0 60239 22500.00000 0 11415657.677 -2546541.228 -22655694.501 10 0 60239 23400.00000 0 10966956.534 238651.351 -23017441.915 10 0 60239 24300.00000 0 10720795.944 3065895.075 -22931656.239 10 0 60239 25200.00000 0 10681878.434 5865387.491 -22400067.872 10 0 60239 26100.00000 0 10842630.567 8567951.768 -21433075.319 10 0 60239 27000.00000 0 11183574.730 11107675.082 -20049538.244 10 0 60239 27900.00000 0 11674219.507 13424413.455 -18276406.284 10 0 60239 28800.00000 0 12274430.529 15466059.513 -16148190.997 10 0 60239 29700.00000 0 12936223.485 17190479.687 -13706291.334 10 0 60239 30600.00000 0 13605903.236 18567041.133 -10998185.756 10 0 60239 31500.00000 0 14226458.387 19577665.814 -8076506.858 10 0 60239 32400.00000 0 14740109.958 20217369.026 -4998016.526 10 0 60239 33300.00000 0 15090906.257 20494261.187 -1822501.740 10 0 60239 34200.00000 0 15227254.214 20429014.205 1388387.312 10 0 60239 35100.00000 0 15104280.072 20053816.189 4572334.028 10 0 60239 36000.00000 0 14685919.628 19410859.596 7667563.684 10 0 60239 36900.00000 0 13946649.640 18550427.435 10614039.624 10 0 60239 37800.00000 0 12872787.151 17528658.746 13354624.200 10 0 60239 38700.00000 0 11463301.672 16405087.824 15836182.121 10 0 60239 39600.00000 0 9730105.514 15240060.825 18010605.197 10 0 60239 40500.00000 0 7697809.405 14092138.220 19835739.142 10 0 60239 41400.00000 0 5402952.628 13015591.844 21276195.173 10 0 60239 42300.00000 0 2892738.742 12058101.074 22304031.344 10 0 60239 43200.00000 0 223328.265 11258744.166 22899291.117 10 0 60239 44100.00000 0 -2542242.092 10646368.368 23050389.286 10 0 60239 45000.00000 0 -5336428.613 10238406.619 22754338.057 10 0 60239 45900.00000 0 -8089741.334 10040190.110 22016808.985 10 0 60239 46800.00000 0 -10733391.480 10044785.384 20852029.283 10 0 60239 47700.00000 0 -13201916.925 10233362.951 19282513.940 10 0 60239 48600.00000 0 -15435677.629 10576082.218 17338638.070 10 0 60239 49500.00000 0 -17383118.132 11033455.991 15058056.785 10 0 60239 50400.00000 0 -19002703.334 11558137.620 12484982.883 10 0 60239 51300.00000 0 -20264447.151 12097055.888 9669335.412 10 0 60239 52200.00000 0 -21150970.317 12593807.896 6665774.932 10 0 60239 53100.00000 0 -21658042.986 12991208.867 3532643.736 10 0 60239 54000.00000 0 -21794589.329 13233890.753 330831.478 10 0 60239 54900.00000 0 -21582154.028 13270839.177 -2877411.548 10 0 60239 55800.00000 0 -21053853.201 13057760.368 -6029689.893 10 0 60239 56700.00000 0 -20252854.312 12559176.814 -9064682.846 10 0 60239 57600.00000 0 -19230449.599 11750161.685 -11923344.184 10 0 60239 58500.00000 0 -18043804.864 10617637.264 -14550057.542 10 0 60239 59400.00000 0 -16753479.250 9161181.183 -16893724.177 10 0 60239 60300.00000 0 -15420821.277 7393305.126 -18908761.409 10 0 60239 61200.00000 0 -14105351.471 5339193.056 -20555991.900 10 0 60239 62100.00000 0 -12862242.257 3035908.902 -21803406.399 10 0 60239 63000.00000 0 -11740001.401 531105.969 -22626785.239 10 0 60239 63900.00000 0 -10778456.403 -2118708.677 -23010166.751 10 0 60239 64800.00000 0 -10007124.239 -4850282.987 -22946153.923 10 0 60239 65700.00000 0 -9444034.438 -7596014.523 -22436053.771 10 0 60239 66600.00000 0 -9095054.167 -10286531.563 -21489847.133 10 0 60239 67500.00000 0 -8953742.799 -12853353.782 -20125989.835 10 0 60239 68400.00000 0 -9001741.086 -15231522.303 -18371049.329 10 0 60239 69300.00000 0 -9209677.606 -17362090.197 -16259184.077 10 0 60239 70200.00000 0 -9538553.333 -19194370.417 -13831475.861 10 0 60239 71100.00000 0 -9941545.173 -20687848.242 -11135128.083 10 0 60239 72000.00000 0 -10366151.620 -21813679.320 -8222545.707 10 0 60239 72900.00000 0 -10756589.362 -22555711.759 -5150314.842 10 0 60239 73800.00000 0 -11056339.102 -22910990.616 -1978101.918 10 0 60239 74700.00000 0 -11210732.622 -22889724.808 1232505.907 10 0 60239 75600.00000 0 -11169471.457 -22514719.005 4419196.387 10 0 60239 76500.00000 0 -10888970.477 -21820295.456 7520140.481 10 0 60239 77400.00000 0 -10334427.192 -20850751.986 10475189.688 10 0 60239 78300.00000 0 -9481529.149 -19658421.707 13227039.224 10 0 60239 79200.00000 0 -8317727.140 -18301416.441 15722334.699 10 0 60239 80100.00000 0 -6843020.118 -16841148.846 17912701.128 10 0 60239 81000.00000 0 -5070218.175 -15339737.166 19755674.938 10 0 60239 81900.00000 0 -3024671.652 -13857401.069 21215521.535 10 0 60239 82800.00000 0 -743476.573 -12449957.171 22263923.305 10 0 60239 83700.00000 0 1725811.722 -11166518.398 22880525.401 10 0 60239 84600.00000 0 4326904.668 -10047492.683 23053329.291 10 0 60239 85500.00000 0 6996875.989 -9122963.985 22778926.768 10 0 60240 0.00000 0 9668540.905 -8411522.769 22062570.015 10 0 60240 900.00000 0 12273023.110 -7919594.043 20918075.670 10 0 60240 1800.00000 0 14742400.672 -7641291.706 19367565.224 10 0 60240 2700.00000 0 17012326.726 -7558803.948 17441044.747 10 0 60240 3600.00000 0 19024513.264 -7643294.562 15175831.965 10 0 60240 4500.00000 0 20728976.471 -7856282.031 12615840.523 10 0 60240 5400.00000 0 22085949.983 -8151438.557 9810734.426 10 0 60240 6300.00000 0 23067386.151 -8476733.294 6814968.334 10 0 60240 7200.00000 0 23657982.303 -8776829.205 3686731.903 10 0 60240 8100.00000 0 23855688.727 -8995631.959 486818.512 10 0 60240 9000.00000 0 23671676.769 -9078882.387 -2722559.467 10 0 60240 9900.00000 0 23129768.266 -8976681.903 -5878985.322 10 0 60240 10800.00000 0 22265350.486 -8645842.988 -8921058.215 10 0 60240 11700.00000 0 21123822.311 -8051963.870 -11789594.459 10 0 60240 12600.00000 0 19758637.572 -7171138.289 -14428785.570 10 0 60240 13500.00000 0 18229028.415 -5991226.665 -16787289.824 10 0 60240 14400.00000 0 16597505.117 -4512633.608 -18819235.489 10 0 60240 15300.00000 0 14927238.109 -2748557.714 -20485115.829 10 0 60240 16200.00000 0 13279432.700 -724701.967 -21752558.344 10 0 60240 17100.00000 0 11710807.018 1521544.183 -22596953.409 10 0 60240 18000.00000 0 10271279.052 3942417.628 -23001930.319 10 0 60240 18900.00000 0 9001959.525 6481535.205 -22959671.949 10 0 60240 19800.00000 0 7933534.181 9076015.448 -22471062.295 10 0 60240 20700.00000 0 7085102.490 11658880.568 -21545664.494 10 0 60240 21600.00000 0 6463520.400 14161638.994 -20201530.099 10 0 60240 22500.00000 0 6063273.529 16516941.392 -18464843.554 10 0 60240 23400.00000 0 5866884.802 18661199.905 -16369408.994 10 0 60240 24300.00000 0 5845838.146 20537061.989 -13955989.427 10 0 60240 25200.00000 0 5961978.109 22095636.211 -11271511.184 10 0 60240 26100.00000 0 6169325.330 23298377.738 -8368149.236 10 0 60240 27000.00000 0 6416230.311 24118555.449 -5302311.200 10 0 60240 27900.00000 0 6647773.712 24542240.136 -2133539.963 10 0 60240 28800.00000 0 6808311.154 24568773.289 1076643.557 10 0 60240 29700.00000 0 6844054.413 24210697.752 4265934.794 10 0 60240 30600.00000 0 6705579.548 23493154.077 7372453.731 10 0 60240 31500.00000 0 6350155.640 22452768.709 10335943.275 10 0 60240 32400.00000 0 5743795.538 21136081.383 13098934.601 10 0 60240 33300.00000 0 4862941.774 19597578.140 15607857.054 10 0 60240 34200.00000 0 3695716.203 17897412.712 17814071.414 10 0 60240 35100.00000 0 2242680.249 16098911.695 19674807.030 10 0 60240 36000.00000 0 517073.025 14265967.649 21153985.341 10 0 60240 36900.00000 0 -1455483.631 12460428.632 22222914.502 10 0 60240 37800.00000 0 -3637802.124 10739592.530 22860842.340 10 0 60240 38700.00000 0 -5982435.443 9153909.954 23055357.511 10 0 60240 39600.00000 0 -8433419.938 7744990.748 22802631.381 10 0 60240 40500.00000 0 -10928383.649 6543996.457 22107496.048 10 0 60240 41400.00000 0 -13400934.038 5570485.099 20983356.730 10 0 60240 42300.00000 0 -15783227.246 4831755.953 19451939.695 10 0 60240 43200.00000 0 -18008613.194 4322721.314 17542879.840 10 0 60240 44100.00000 0 -20014247.346 4026310.296 15293154.948 10 0 60240 45000.00000 0 -21743560.811 3914387.605 12746376.620 10 0 60240 45900.00000 0 -23148485.998 3949148.532 9951950.714 10 0 60240 46800.00000 0 -24191344.784 4084931.365 6964122.799 10 0 60240 47700.00000 0 -24846319.769 4270370.512 3840926.715 10 0 60240 48600.00000 0 -25100446.569 4450799.077 643056.483 10 0 60240 49500.00000 0 -24954084.917 4570798.633 -2567316.385 10 0 60240 50400.00000 0 -24420848.401 4576787.513 -5727756.634 10 0 60240 51300.00000 0 -23526995.472 4419536.966 -8776785.833 10 0 60240 52200.00000 0 -22310307.258 4056507.454 -11655085.148 10 0 60240 53100.00000 0 -20818499.461 3453904.885 -14306656.060 10 0 60240 54000.00000 0 -19107235.421 2588368.408 -16679915.663 10 0 60240 54900.00000 0 -17237824.261 1448217.116 -18728704.670 10 0 60240 55800.00000 0 -15274701.307 34201.766 -20413188.068 10 0 60240 56700.00000 0 -13282796.895 -1640271.348 -21700630.833 10 0 60240 57600.00000 0 -11324904.168 -3549454.874 -22566033.670 10 0 60240 58500.00000 0 -9459156.193 -5656100.947 -22992616.725 10 0 60240 59400.00000 0 -7736717.779 -7912793.419 -22972142.242 10 0 60240 60300.00000 0 -6199788.062 -10263716.727 -22505070.330 10 0 60240 61200.00000 0 -4879996.609 -12646788.051 -21600545.260 10 0 60240 62100.00000 0 -3797259.083 -14996064.247 -20276212.890 10 0 60240 63000.00000 0 -2959139.051 -17244323.544 -18557873.039 10 0 60240 63900.00000 0 -2360741.259 -19325714.665 -16478973.752 10 0 60240 64800.00000 0 -1985139.323 -21178363.183 -14079957.393 10 0 60240 65700.00000 0 -1804318.333 -22746826.692 -11407471.313 10 0 60240 66600.00000 0 -1780591.306 -23984296.602 -8513458.548 10 0 60240 67500.00000 0 -1868428.478 -24854454.971 -5454146.298 10 0 60240 68400.00000 0 -2016621.170 -25332909.195 -2288951.989 10 0 60240 69300.00000 0 -2170687.890 -25408145.067 920671.600 10 0 60240 70200.00000 0 -2275420.303 -25081958.902 4112429.506 10 0 60240 71100.00000 0 -2277460.858 -24369351.287 7224392.677 10 0 60240 72000.00000 0 -2127802.744 -23297887.516 10196197.408 10 0 60240 72900.00000 0 -1784106.232 -21906552.097 12970212.840 10 0 60240 73800.00000 0 -1212733.355 -20244145.695 15492654.060 10 0 60240 74700.00000 0 -390414.817 -18367291.875 17714619.546 10 0 60240 75600.00000 0 694521.445 -16338136.988 19593033.385 10 0 60240 76500.00000 0 2041412.308 -14221839.047 21091474.668 10 0 60240 77400.00000 0 3637043.875 -12083949.923 22180878.670 10 0 60240 78300.00000 0 5455968.320 -9987799.344 22840096.956 10 0 60240 79200.00000 0 7461341.242 -7991988.803 23056306.089 10 0 60240 80100.00000 0 9606245.989 -6148098.872 22825257.397 10 0 60240 81000.00000 0 11835451.304 -4498704.422 22151363.034 10 0 60240 81900.00000 0 14087530.673 -3075779.516 21047616.418 10 0 60240 82800.00000 0 16297256.508 -1899557.703 19535348.090 10 0 60240 83700.00000 0 18398170.775 -977894.608 17643820.949 10 0 60240 84600.00000 0 20325225.877 -306158.942 15409671.735 10 0 60240 85500.00000 0 22017386.284 132343.912 12876208.639 99